Location: ?????
(33.6267°N, 35.4675°E)
Time: 08:42:42
(UTC+00:00)

Cosmos 2297 Rocket - Pass Details

Date: 12 November 2019
Orbit: 840 x 843 km, 71.0° (Epoch: 06 December)

Event Time Altitude Azimuth Distance (km) Brightness Sun altitude
Rises 16:01:23 0° 344° (NNW) 3,401 5.4 -17.7°
Reaches altitude 10° 16:03:53 10° 348° (NNW) 2,464 4.6 -18.2°
Maximum altitude 16:09:27 56° 67° (ENE) 996 2.2 -19.3°
Enters shadow 16:14:46 11° 144° (SE) 2,382 4.3 -20.4°
